Tracking 31027 objects as of 19-Jul-2025
HD Live streaming from Space Station
objects crossing your sky now

SL-8 R/B

Track SL-8 R/B now!
10-day predictions


NORAD ID: 11379
Int'l Code: 1979-046B
Perigee: 963.9 km
Apogee: 994.3 km
Inclination: 82.9 °
Period: 104.5 minutes
Semi major axis: 7350 km
RCS: 4.2164 m2 (large)
Launch date: May 31, 1979
Source: Commonwealth of Independent States (former USSR) (CIS)
Launch site: PLESETSK MISSILE AND SPACE COMPLEX (PKMTR)

Note: This is a ROCKET BODY
Your satellite tracking list
BELINTERSAT 1
Track 1 satellite(s)




NASA's NSSDC Master Catalog

Two Line Element Set (TLE):
1 11379U 79046B   25199.50174935  .00000023  00000-0  78784-5 0  9991
2 11379  82.9435 271.3170 0020719 207.2751 163.8980 13.77723723280151
Source of the keplerian elements: AFSPC